KE7YUP Weather Reports


Display with metric or nautical units.
time (UTC)temp
F
wind
direction
speed
MPH
gust
MPH
rain 1hr
in
rain 24hr
in
rain mn
in
humidity
%
barometer
mb
20191214110716 37 90 2.0 3.0 0.00 0.17 0.03 92 1008.6
20191214105716 37 0.0 1.0 0.00 0.17 0.03 91 1008.7
20191214104716 37 45 2.0 3.0 0.01 0.17 0.03 92 1008.8
20191214103716 36 23 2.0 3.0 0.01 0.17 0.03 93 1008.5
20191214102716 36 0 3.0 4.0 0.01 0.17 0.03 93 1008.6
20191214101716 36 0 3.0 4.0 0.01 0.17 0.03 94 1009.0
20191214100716 36 338 4.0 5.0 0.01 0.17 0.03 94 1009.2
20191214095716 36 23 2.0 3.0 0.01 0.17 0.03 95 1009.3
20191214094716 35 338 3.0 4.0 0.00 0.16 0.02 95 1009.2
20191214093716 35 23 2.0 3.0 0.00 0.17 0.02 95 1009.1
20191214092716 34 293 2.0 2.0 0.00 0.17 0.02 94 1009.1
20191214091716 34 270 1.0 1.0 0.00 0.18 0.02 94 1009.2
20191214090716 34 270 1.0 2.0 0.00 0.18 0.02 94 1009.3
20191214085716 34 0.0 0.0 0.00 0.18 0.02 94 1009.2
20191214084716 34 270 2.0 2.0 0.01 0.18 0.02 93 1009.4
20191214083716 34 270 4.0 6.0 0.01 0.18 0.02 93 1009.4
20191214082716 35 248 3.0 4.0 0.01 0.18 0.02 92 1009.6
20191214081716 35 0.0 0.0 0.02 0.18 0.02 92 1009.6
20191214080716 36 338 3.0 4.0 0.02 0.18 0.02 92 1010.2
20191214075716 36 338 2.0 3.0 0.02 0.19 0.02 93 1010.6
20191214074716 35 338 3.0 4.0 0.01 0.18 0.01 93 1010.2
20191214073716 35 338 6.0 8.0 0.02 0.18 0.01 93 1010.6
20191214072716 35 0 2.0 2.0 0.02 0.18 0.01 93 1010.7
20191214071716 35 0 1.0 2.0 0.01 0.18 0.00 93 1010.9
20191214070715 35 0 1.0 2.0 0.01 0.18 0.00 93 1011.1
20191214065717 36 0.0 0.0 0.01 0.18 0.18 93 1011.4
20191214064717 35 0 2.0 3.0 0.02 0.18 0.18 94 1011.2
20191214063717 35 0 1.0 2.0 0.01 0.17 0.17 93 1011.2
20191214062717 35 0 1.0 2.0 0.01 0.17 0.17 94 1011.3
20191214061717 35 0 1.0 2.0 0.01 0.17 0.17 94 1011.4
20191214060717 35 0 1.0 2.0 0.02 0.17 0.17 94 1011.1
20191214055715 34 0.0 1.0 0.02 0.17 0.17 94 1011.3
20191214054717 34 0 1.0 2.0 0.01 0.16 0.16 94 1011.7
20191214053717 34 0 2.0 2.0 0.02 0.16 0.16 94 1011.5
20191214052717 34 0 2.0 3.0 0.02 0.16 0.16 94 1011.5
20191214051718 34 0 2.0 3.0 0.03 0.16 0.16 94 1011.6
20191214050718 34 0.0 1.0 0.02 0.15 0.15 94 1011.3
20191214045716 34 0.0 1.0 0.02 0.15 0.15 94 1011.6
20191214044717 34 0 1.0 2.0 0.02 0.15 0.15 94 1011.3
20191214043718 34 0.0 1.0 0.01 0.14 0.14 94 1011.2
20191214042717 34 23 1.0 3.0 0.01 0.14 0.14 94 1011.7
20191214041717 33 45 2.0 3.0 0.01 0.14 0.13 94 1011.7
20191214040717 33 225 1.0 2.0 0.01 0.14 0.13 94 1011.9
20191214035717 33 225 1.0 2.0 0.01 0.14 0.13 94 1011.9
20191214034716 34 0.0 0.0 0.02 0.14 0.13 93 1012.1
20191214033717 34 225 1.0 2.0 0.02 0.14 0.13 93 1012.2
20191214032717 34 225 2.0 2.0 0.03 0.14 0.13 93 1012.8
20191214031716 34 0.0 1.0 0.02 0.13 0.12 93 1012.5
20191214030716 34 225 1.0 1.0 0.02 0.13 0.12 93 1012.8
20191214025716 34 0.0 1.0 0.03 0.13 0.12 93 1013.2
20191214024717 34 225 1.0 2.0 0.02 0.12 0.11 93 1013.4
20191214023716 34 248 1.0 2.0 0.03 0.12 0.11 93 1012.9
20191214022717 34 248 2.0 3.0 0.02 0.11 0.10 93 1013.6
20191214021717 34 203 1.0 2.0 0.02 0.11 0.10 93 1013.5
20191214020716 34 0.0 2.0 0.02 0.11 0.10 93 1013.5
20191214015716 34 203 1.0 2.0 0.02 0.10 0.09 93 1013.3
20191214014716 34 203 1.0 2.0 0.02 0.10 0.09 93 1013.8
20191214013716 34 0.0 1.0 0.02 0.09 0.08 93 1013.9
20191214012716 34 180 2.0 2.0 0.02 0.09 0.08 92 1014.3
20191214011716 34 0.0 1.0 0.02 0.09 0.08 92 1014.4
20191214010716 34 180 1.0 2.0 0.02 0.09 0.08 92 1014.5
20191214005716 34 180 1.0 2.0 0.01 0.08 0.07 92 1014.6
20191214004716 34 180 2.0 4.0 0.01 0.08 0.07 92 1014.5
20191214003716 34 180 1.0 1.0 0.01 0.07 0.06 91 1014.7
20191214002716 34 180 2.0 3.0 0.01 0.07 0.06 91 1014.9
20191214001716 34 180 1.0 2.0 0.01 0.07 0.06 90 1015.3
20191214000716 35 158 5.0 8.0 0.01 0.07 0.06 88 1015.5
20191213235716 35 180 3.0 4.0 0.01 0.07 0.06 87 1015.6
20191213234716 36 158 5.0 9.0 0.01 0.07 0.06 86 1015.7
20191213233716 36 158 6.0 7.0 0.00 0.06 0.05 84 1016.5
20191213232716 36 158 4.0 7.0 0.00 0.06 0.05 83 1016.7
20191213231716 36 180 5.0 9.0 0.00 0.06 0.05 83 1016.9
20191213230716 37 180 5.0 7.0 0.00 0.06 0.05 83 1017.2
20191213225716 37 90 3.0 9.0 0.00 0.06 0.05 83 1017.6
20191213224716 37 135 6.0 9.0 0.00 0.06 0.05 82 1017.7
20191213223716 37 158 4.0 5.0 0.00 0.06 0.05 80 1017.8
20191213222716 37 135 4.0 5.0 0.00 0.06 0.05 79 1018.4
20191213221716 38 180 3.0 3.0 0.00 0.06 0.05 78 1018.2
20191213220716 38 203 3.0 5.0 0.00 0.06 0.05 78 1018.7
20191213215716 38 90 1.0 1.0 0.00 0.06 0.05 78 1018.7
20191213214716 38 90 2.0 3.0 0.00 0.06 0.05 76 1019.0
20191213213716 38 113 1.0 2.0 0.00 0.06 0.05 75 1019.2
20191213212716 38 135 3.0 4.0 0.00 0.06 0.05 75 1019.6
20191213211716 38 68 4.0 6.0 0.00 0.06 0.05 76 1019.4
20191213210716 38 0.0 1.0 0.00 0.06 0.05 76 1019.2
20191213205716 39 90 6.0 7.0 0.00 0.06 0.05 78 1019.3
20191213204716 39 113 3.0 5.0 0.00 0.06 0.05 80 1019.4
20191213203716 39 113 6.0 8.0 0.00 0.06 0.05 79 1019.7
20191213202716 40 135 2.0 4.0 0.00 0.06 0.05 70 1019.9
20191213201716 40 90 3.0 4.0 0.00 0.06 0.05 67 1020.1
20191213200715 41 90 5.0 5.0 0.00 0.06 0.05 70 1020.6
20191213195716 41 270 1.0 2.0 0.00 0.06 0.05 69 1020.6
20191213194715 40 0.0 1.0 0.00 0.06 0.05 70 1020.9
20191213193715 40 270 3.0 6.0 0.00 0.06 0.05 71 1021.4
20191213192715 40 0.0 1.0 0.00 0.06 0.05 74 1021.2
20191213191715 40 203 3.0 5.0 0.00 0.06 0.05 75 1021.7
20191213190716 40 225 4.0 5.0 0.00 0.06 0.05 77 1022.2
20191213185715 40 225 2.0 4.0 0.00 0.06 0.05 78 1022.6
20191213184715 39 293 4.0 6.0 0.00 0.06 0.05 79 1022.2
20191213183715 39 270 5.0 7.0 0.00 0.06 0.05 80 1022.5
20191213182715 39 248 5.0 7.0 0.00 0.06 0.05 80 1022.6
20191213181715 39 248 3.0 5.0 0.00 0.06 0.05 83 1023.1
20191213180715 39 270 6.0 8.0 0.00 0.06 0.05 84 1023.0
20191213175716 38 248 5.0 7.0 0.00 0.06 0.05 84 1023.2
20191213174715 38 270 6.0 9.0 0.00 0.06 0.05 85 1023.5
20191213173715 39 248 5.0 7.0 0.00 0.06 0.05 86 1024.0
20191213172715 38 270 7.0 9.0 0.00 0.06 0.05 87 1024.0
20191213171715 38 270 6.0 8.0 0.00 0.06 0.05 87 1023.7
20191213170715 37 270 3.0 6.0 0.00 0.06 0.05 89 1023.0
20191213165715 37 315 3.0 4.0 0.00 0.06 0.05 89 1023.4
20191213163715 36 315 5.0 8.0 0.00 0.06 0.05 89 1023.3
20191213162715 36 293 6.0 9.0 0.00 0.06 0.05 89 1023.7
20191213161715 36 293 4.0 6.0 0.00 0.06 0.05 90 1023.4
20191213160715 35 315 6.0 8.0 0.00 0.06 0.05 89 1023.2
20191213155715 35 293 6.0 8.0 0.00 0.06 0.05 89 1023.3
20191213154715 35 270 4.0 6.0 0.00 0.06 0.05 89 1023.2
20191213153715 35 270 7.0 9.0 0.00 0.06 0.05 88 1023.4
20191213152717 36 270 5.0 8.0 0.00 0.06 0.05 86 1023.0
20191213151717 35 270 8.0 9.0 0.00 0.06 0.05 89 1023.1
20191213150717 35 248 5.0 7.0 0.00 0.06 0.05 88 1023.1
20191213145718 36 248 10.0 14.0 0.00 0.06 0.05 84 1023.4
20191213144717 36 270 7.0 9.0 0.00 0.06 0.05 84 1022.6
20191213143717 35 270 7.0 9.0 0.00 0.06 0.05 87 1022.6
20191213142717 37 248 5.0 7.0 0.00 0.06 0.05 82 1022.8
20191213141717 37 338 5.0 10.0 0.00 0.06 0.05 83 1022.5
20191213140717 37 270 8.0 10.0 0.00 0.06 0.05 84 1022.7
20191213135717 36 270 4.0 6.0 0.00 0.06 0.05 84 1022.7
20191213134717 37 270 8.0 11.0 0.00 0.06 0.05 84 1022.8
20191213133717 36 315 5.0 8.0 0.00 0.06 0.05 85 1022.9
20191213132717 36 293 4.0 6.0 0.00 0.06 0.05 85 1023.0
20191213131717 36 270 6.0 10.0 0.01 0.06 0.05 85 1023.1
20191213130717 36 338 4.0 5.0 0.01 0.06 0.05 85 1023.1
20191213125717 37 45 4.0 6.0 0.01 0.06 0.05 84 1023.0
20191213124716 37 23 5.0 9.0 0.01 0.06 0.05 85 1023.2
20191213123717 37 68 4.0 5.0 0.01 0.06 0.05 84 1022.9
20191213122716 37 45 1.0 3.0 0.01 0.06 0.05 83 1022.8
20191213121716 38 23 9.0 13.0 0.00 0.05 0.04 81 1023.0
20191213120716 38 293 9.0 12.0 0.00 0.05 0.04 79 1022.7
20191213115717 38 270 9.0 13.0 0.00 0.05 0.04 78 1022.9
20191213114717 38 293 2.0 3.0 0.00 0.05 0.04 80 1022.8
20191213113717 38 315 6.0 9.0 0.00 0.05 0.04 79 1023.0
20191213112717 38 338 8.0 12.0 0.00 0.05 0.04 78 1022.9
20191213111716 38 338 9.0 13.0 0.00 0.05 0.04 79 1023.1